Location: Lafig�re
(44.4503°N, 4.0357°E)
Time: 02:54:44
(UTC+00:00)

Transit 4A - Pass Details

Date: 23 January 2021
Orbit: 866 x 978 km, 66.8° (Epoch: 02 March)

Event Time Altitude Azimuth Distance (km) Brightness Sun altitude
Rises 02:20:38 0° 332° (NNW) 3,645 - -50.9°
Reaches altitude 10° 02:23:39 10° 344° (NNW) 2,679 - -50.4°
Maximum altitude 02:28:52 27° 41° (NE) 1,711 - -49.6°
Drops below altitude 10° 02:33:57 10° 98° (E) 2,604 - -48.7°
Exits shadow 02:34:50 - 103° (ESE) 2,871 10.9 -48.6°
Sets 02:36:49 0° 110° (ESE) 3,523 11.3 -48.3°
